Location: Caltech
(34.1382°N, 118.1253°W)
Time: 11:31:52
(UTC-07:00)

Uribyol 2 - Visible Passes

Search period start: 30 September 2016 00:00
Search period end: 10 October 2016 00:00
Orbit: 783 x 796 km, 98.8° (Epoch: 29 September)

Date Brightness Start Highest point End Pass type
(mag) Time Alt. Az. Time Alt. Az. Time Alt. Az.
30 Sep ? 03:08:50 10° NE 03:09:25 13° NE 03:09:25 13° NE visible
30 Sep ? 04:48:23 10° NNW 04:50:07 18° NNW 04:50:07 18° NNW visible
01 Oct ? 04:18:12 10° N 04:20:01 21° N 04:20:01 21° N visible
02 Oct ? 03:48:28 10° NNE 03:49:54 19° NNE 03:49:54 19° NNE visible
03 Oct ? 03:19:10 10° NNE 03:19:47 13° NNE 03:19:47 13° NNE visible
03 Oct ? 04:59:17 10° NNW 05:00:29 15° NNW 05:00:29 15° NNW visible
04 Oct ? 04:28:54 10° N 04:30:22 18° N 04:30:22 18° N visible
05 Oct ? 03:59:02 10° N 04:00:16 18° N 04:00:16 18° N visible
06 Oct ? 03:29:33 10° NNE 03:30:09 13° NNE 03:30:09 13° NNE visible
06 Oct ? 05:10:18 10° NNW 05:10:51 12° NNW 05:10:51 12° NNW visible
07 Oct ? 04:39:39 10° N 04:40:44 15° NNW 04:40:44 15° NNW visible
08 Oct ? 04:09:38 10° N 04:10:37 16° N 04:10:37 16° N visible
09 Oct ? 03:40:01 10° NNE 03:40:30 13° NNE 03:40:30 13° NNE visible
